Location: Newark
(31.5350°N, 35.0986°E)
Time: 00:45:37
(UTC+00:00)

Transit 4A - Pass Details

Date: 27 October 2019
Orbit: 868 x 976 km, 66.8° (Epoch: 11 November)

Event Time Altitude Azimuth Distance (km) Brightness Sun altitude
Rises 08:54:41 0° 349° (N) 3,525 10.5 45.2°
Reaches altitude 10° 08:57:51 10° 5° (N) 2,563 9.9 45.3°
Maximum altitude 09:02:17 22° 54° (NE) 1,851 9.5 45.4°
Drops below altitude 10° 09:06:38 10° 103° (ESE) 2,517 10.5 45.5°
Sets 09:09:42 0° 118° (ESE) 3,445 11.2 45.6°
